| time (UTC) | temp C | wind direction | speed KPH | gust KPH | rain 1hr cm | rain 24hr cm | rain mn cm | humidity % | barometer mb |
| 20260502181421 | 25 | 0.0 | 0.0 | 0.00 | 0.00 | 0.00 | 25 | 1016.5 | |
| 20260502180447 | 25 | 0.0 | 0.0 | 0.00 | 0.00 | 0.00 | 25 | 1016.4 | |
| 20260502163853 | 30 | 0.0 | 0.0 | 0.00 | 0.00 | 0.00 | 17 | 1016.6 | |
| 20260502162922 | 30 | 0.0 | 0.0 | 0.00 | 0.00 | 0.00 | 16 | 1016.7 | |
| 20260502161948 | 31 | 0.0 | 0.0 | 0.00 | 0.00 | 0.00 | 16 | 1016.8 | |
| 20260502161015 | 31 | 0.0 | 0.0 | 0.00 | 0.00 | 0.00 | 17 | 1016.9 | |
| 20260502152229 | 32 | 0.0 | 0.0 | 0.00 | 0.00 | 0.00 | 16 | 1017.5 | |
| 20260502151255 | 31 | 0.0 | 0.0 | 0.00 | 0.00 | 0.00 | 18 | 1017.7 | |
| 20260502150321 | 32 | 0.0 | 0.0 | 0.00 | 0.00 | 0.00 | 17 | 1017.9 | |
| 20260502123026 | 31 | 0.0 | 0.0 | 0.00 | 0.00 | 0.00 | 19 | 1020.0 | |
| 20260502122052 | 30 | 0.0 | 0.0 | 0.00 | 0.00 | 0.00 | 21 | 1020.2 | |
| 20260502121119 | 30 | 0.0 | 0.0 | 0.00 | 0.00 | 0.00 | 19 | 1020.2 | |
| 20260502120146 | 30 | 0.0 | 0.0 | 0.00 | 0.00 | 0.00 | 20 | 1020.5 | |
| 20260502115212 | 29 | 0.0 | 0.0 | 0.00 | 0.00 | 0.00 | 20 | 1020.7 | |
| 20260502114240 | 28 | 0.0 | 0.0 | 0.00 | 0.00 | 0.00 | 21 | 1020.9 | |
| 20260502113306 | 30 | 0.0 | 0.0 | 0.00 | 0.00 | 0.00 | 20 | 1020.8 | |
| 20260502112332 | 29 | 0.0 | 0.0 | 0.00 | 0.00 | 0.00 | 20 | 1021.0 | |
| 20260502111359 | 27 | 0.0 | 0.0 | 0.00 | 0.00 | 0.00 | 22 | 1021.2 | |
| 20260502110426 | 28 | 0.0 | 0.0 | 0.00 | 0.00 | 0.00 | 22 | 1021.2 | |
| 20260502105452 | 28 | 0.0 | 0.0 | 0.00 | 0.00 | 0.00 | 22 | 1021.3 | |
| 20260502104518 | 28 | 0.0 | 0.0 | 0.00 | 0.00 | 0.00 | 23 | 1021.5 | |
| 20260502103544 | 28 | 0.0 | 0.0 | 0.00 | 0.00 | 0.00 | 24 | 1021.5 | |
| 20260502102612 | 27 | 0.0 | 0.0 | 0.00 | 0.00 | 0.00 | 24 | 1021.9 | |
| 20260502101640 | 28 | 0.0 | 0.0 | 0.00 | 0.00 | 0.00 | 22 | 1021.9 | |
| 20260502090937 | 25 | 0.0 | 0.0 | 0.00 | 0.00 | 0.00 | 26 | 1022.8 | |
| 20260502071456 | 24 | 0.0 | 0.0 | 0.00 | 0.00 | 0.00 | 28 | 1023.6 | |
| 20260502070520 | 23 | 0.0 | 0.0 | 0.00 | 0.00 | 0.00 | 30 | 1023.7 | |
| 20260502065545 | 21 | 0.0 | 0.0 | 0.00 | 0.00 | 0.00 | 34 | 1023.9 | |
| 20260502064610 | 21 | 0.0 | 0.0 | 0.00 | 0.00 | 0.00 | 35 | 1024.1 | |
| 20260502063632 | 20 | 0.0 | 0.0 | 0.00 | 0.00 | 0.00 | 36 | 1024.0 | |
| 20260502062653 | 17 | 0.0 | 0.0 | 0.00 | 0.00 | 0.00 | 43 | 1024.2 | |
| 20260502061718 | 16 | 0.0 | 0.0 | 0.00 | 0.00 | 0.00 | 48 | 1024.5 | |
| 20260502060744 | 14 | 0.0 | 0.0 | 0.00 | 0.00 | 0.00 | 56 | 1024.5 | |
| 20260502055811 | 13 | 0.0 | 0.0 | 0.00 | 0.00 | 0.00 | 59 | 1024.6 | |
| 20260502054836 | 12 | 0.0 | 0.0 | 0.00 | 0.00 | 0.00 | 60 | 1024.6 | |
| 20260502053902 | 11 | 0.0 | 0.0 | 0.00 | 0.00 | 0.00 | 64 | 1024.7 | |
| 20260502052929 | 10 | 0.0 | 0.0 | 0.00 | 0.00 | 0.00 | 66 | 1024.7 | |
| 20260502051955 | 10 | 0.0 | 0.0 | 0.00 | 0.00 | 0.00 | 69 | 1024.8 | |
| 20260502051023 | 8 | 0.0 | 0.0 | 0.00 | 0.00 | 0.00 | 71 | 1024.8 | |
| 20260502050050 | 8 | 0.0 | 0.0 | 0.00 | 0.00 | 0.00 | 73 | 1024.9 | |
| 20260502045117 | 7 | 0.0 | 0.0 | 0.00 | 0.00 | 0.00 | 73 | 1025.0 | |
| 20260502044143 | 7 | 0.0 | 0.0 | 0.00 | 0.00 | 0.00 | 75 | 1025.0 | |
| 20260502043211 | 6 | 0.0 | 0.0 | 0.00 | 0.00 | 0.00 | 76 | 1025.1 | |
| 20260502042239 | 6 | 0.0 | 0.0 | 0.00 | 0.00 | 0.00 | 76 | 1025.0 | |
| 20260502041307 | 6 | 0.0 | 0.0 | 0.00 | 0.00 | 0.00 | 76 | 1025.1 | |
| 20260502040335 | 6 | 0.0 | 0.0 | 0.00 | 0.00 | 0.00 | 76 | 1025.2 | |
| 20260502035404 | 6 | 0.0 | 0.0 | 0.00 | 0.00 | 0.00 | 77 | 1025.1 | |
| 20260502034432 | 6 | 0.0 | 0.0 | 0.00 | 0.00 | 0.00 | 78 | 1025.2 | |
| 20260502033500 | 6 | 0.0 | 0.0 | 0.00 | 0.00 | 0.00 | 77 | 1025.3 | |
| 20260502032528 | 6 | 0.0 | 0.0 | 0.00 | 0.00 | 0.00 | 78 | 1025.4 | |
| 20260502031557 | 6 | 0.0 | 0.0 | 0.00 | 0.00 | 0.00 | 77 | 1025.3 | |
| 20260502030625 | 6 | 0.0 | 0.0 | 0.00 | 0.00 | 0.00 | 76 | 1025.3 | |
| 20260502025654 | 6 | 0.0 | 0.0 | 0.00 | 0.00 | 0.00 | 76 | 1025.4 | |
| 20260502024722 | 7 | 0.0 | 0.0 | 0.00 | 0.00 | 0.00 | 74 | 1025.4 | |
| 20260502023750 | 7 | 0.0 | 0.0 | 0.00 | 0.00 | 0.00 | 74 | 1025.4 | |
| 20260502022818 | 7 | 0.0 | 0.0 | 0.00 | 0.00 | 0.00 | 73 | 1025.4 | |
| 20260502021846 | 6 | 0.0 | 0.0 | 0.00 | 0.00 | 0.00 | 76 | 1025.4 | |
| 20260502020914 | 7 | 0.0 | 0.0 | 0.00 | 0.00 | 0.00 | 76 | 1025.5 | |
| 20260502015943 | 7 | 0.0 | 0.0 | 0.00 | 0.00 | 0.00 | 76 | 1025.5 | |
| 20260502015011 | 7 | 0.0 | 0.0 | 0.00 | 0.00 | 0.00 | 76 | 1025.5 | |
| 20260502014039 | 7 | 0.0 | 0.0 | 0.00 | 0.00 | 0.00 | 76 | 1025.5 | |
| 20260502013107 | 7 | 0.0 | 0.0 | 0.00 | 0.00 | 0.00 | 76 | 1025.6 | |
| 20260502011204 | 7 | 0.0 | 0.0 | 0.00 | 0.00 | 0.00 | 76 | 1025.7 | |
| 20260502010233 | 7 | 0.0 | 0.0 | 0.00 | 0.00 | 0.00 | 74 | 1025.7 | |
| 20260502005301 | 7 | 0.0 | 0.0 | 0.00 | 0.00 | 0.00 | 74 | 1025.8 | |
| 20260502004330 | 7 | 0.0 | 0.0 | 0.00 | 0.00 | 0.00 | 73 | 1025.9 | |
| 20260502003400 | 7 | 0.0 | 0.0 | 0.00 | 0.00 | 0.00 | 72 | 1025.9 | |
| 20260502002424 | 8 | 0.0 | 0.0 | 0.00 | 0.00 | 0.00 | 70 | 1026.0 | |
| 20260502001453 | 8 | 0.0 | 0.0 | 0.00 | 0.00 | 0.00 | 69 | 1026.0 | |
| 20260502000521 | 8 | 0.0 | 0.0 | 0.00 | 0.00 | 0.00 | 68 | 1026.1 | |
| 20260501235549 | 8 | 0.0 | 0.0 | 0.00 | 0.00 | 0.00 | 69 | 1026.2 | |
| 20260501234618 | 8 | 0.0 | 0.0 | 0.00 | 0.00 | 0.00 | 68 | 1026.2 | |
| 20260501233647 | 9 | 0.0 | 0.0 | 0.00 | 0.00 | 0.00 | 66 | 1026.2 | |
| 20260501232713 | 9 | 0.0 | 0.0 | 0.00 | 0.00 | 0.00 | 66 | 1026.2 | |
| 20260501231741 | 9 | 0.0 | 0.0 | 0.00 | 0.00 | 0.00 | 66 | 1026.2 | |
| 20260501230811 | 9 | 0.0 | 0.0 | 0.00 | 0.00 | 0.00 | 66 | 1026.1 | |
| 20260501225837 | 10 | 0.0 | 0.0 | 0.00 | 0.00 | 0.00 | 63 | 1026.0 | |
| 20260501224906 | 10 | 0.0 | 0.0 | 0.00 | 0.00 | 0.00 | 63 | 1026.1 | |
| 20260501223934 | 10 | 0.0 | 0.0 | 0.00 | 0.00 | 0.00 | 63 | 1026.1 | |
| 20260501223003 | 11 | 0.0 | 0.0 | 0.00 | 0.00 | 0.00 | 61 | 1026.0 | |
| 20260501222032 | 11 | 0.0 | 0.0 | 0.00 | 0.00 | 0.00 | 61 | 1026.0 | |
| 20260501221059 | 11 | 0.0 | 0.0 | 0.00 | 0.00 | 0.00 | 60 | 1026.1 | |
| 20260501220125 | 11 | 0.0 | 0.0 | 0.00 | 0.00 | 0.00 | 57 | 1026.2 | |
| 20260501215154 | 11 | 0.0 | 0.0 | 0.00 | 0.00 | 0.00 | 56 | 1026.1 | |
| 20260501214222 | 12 | 0.0 | 0.0 | 0.00 | 0.00 | 0.00 | 54 | 1026.0 | |
| 20260501213252 | 12 | 0.0 | 0.0 | 0.00 | 0.00 | 0.00 | 53 | 1025.9 | |
| 20260501212318 | 12 | 0.0 | 0.0 | 0.00 | 0.00 | 0.00 | 53 | 1026.1 | |
| 20260501211344 | 13 | 0.0 | 0.0 | 0.00 | 0.00 | 0.00 | 52 | 1026.0 | |
| 20260501210412 | 13 | 0.0 | 0.0 | 0.00 | 0.00 | 0.00 | 51 | 1026.0 | |
| 20260501205440 | 13 | 0.0 | 0.0 | 0.00 | 0.00 | 0.00 | 50 | 1026.0 | |
| 20260501204508 | 14 | 0.0 | 0.0 | 0.00 | 0.00 | 0.00 | 48 | 1025.9 | |
| 20260501203537 | 15 | 0.0 | 0.0 | 0.00 | 0.00 | 0.00 | 44 | 1026.0 | |
| 20260501201636 | 15 | 0.0 | 0.0 | 0.00 | 0.00 | 0.00 | 44 | 1026.1 | |
| 20260501200705 | 16 | 0.0 | 0.0 | 0.00 | 0.00 | 0.00 | 41 | 1026.0 | |
| 20260501195733 | 16 | 0.0 | 0.0 | 0.00 | 0.00 | 0.00 | 40 | 1026.1 | |
| 20260501194802 | 17 | 0.0 | 0.0 | 0.00 | 0.00 | 0.00 | 38 | 1026.1 | |
| 20260501193830 | 17 | 0.0 | 0.0 | 0.00 | 0.00 | 0.00 | 37 | 1026.1 | |
| 20260501192900 | 17 | 0.0 | 0.0 | 0.00 | 0.00 | 0.00 | 37 | 1025.9 | |
| 20260501191928 | 18 | 0.0 | 0.0 | 0.00 | 0.00 | 0.00 | 34 | 1025.8 | |
| 20260501190954 | 18 | 0.0 | 0.0 | 0.00 | 0.00 | 0.00 | 33 | 1025.8 | |
| 20260501190023 | 19 | 0.0 | 0.0 | 0.00 | 0.00 | 0.00 | 32 | 1025.8 | |
| 20260501185051 | 20 | 0.0 | 0.0 | 0.00 | 0.00 | 0.00 | 30 | 1025.7 | |
| 20260501184119 | 20 | 0.0 | 0.0 | 0.00 | 0.00 | 0.00 | 30 | 1025.6 | |
| 20260501183149 | 21 | 0.0 | 0.0 | 0.00 | 0.00 | 0.00 | 29 | 1025.7 | |
| 20260501182215 | 21 | 0.0 | 0.0 | 0.00 | 0.00 | 0.00 | 29 | 1025.6 |